PRGER SBJF-SBMT

Flight info

Callsign PRGER
Flight time 2h 16m
Altitude 6500
Route DCT 2204S04331W REA 2232S04408W DCT 2240S04459W REA 2325S04645W DCT
Aircraft C172/L-SFG/C

Departure

Time 2026-05-05 18:35
Airport Francisco de Assis Airport (SBJF)

Arrival

Time 2026-05-05 20:52
Airport Campo de Marte Airport (SBMT)
Time Latitude Longitude Altitude Speed Heading
2026-05-05 18:28 -21.79339 -43.38630 2947 ft 0 kts 184°
2026-05-05 18:29 -21.79357 -43.38631 2949 ft 6 kts 185°
2026-05-05 18:30 -21.79418 -43.38639 2948 ft 11 kts 186°
2026-05-05 18:30 -21.79506 -43.38644 2947 ft 15 kts 187°
2026-05-05 18:30 -21.79621 -43.38659 2951 ft 18 kts 185°
2026-05-05 18:30 -21.79731 -43.38670 2952 ft 12 kts 189°
2026-05-05 18:31 -21.79791 -43.38663 2952 ft 10 kts 171°
2026-05-05 18:31 -21.79798 -43.38677 2952 ft 6 kts 19°
2026-05-05 18:31 -21.79777 -43.38674 2952 ft 0 kts
2026-05-05 18:33 -21.79762 -43.38672 2952 ft 9 kts
2026-05-05 18:33 -21.79621 -43.38655 2951 ft 34 kts
2026-05-05 18:34 -21.79273 -43.38625 2945 ft 66 kts
2026-05-05 18:34 -21.78773 -43.38584 3010 ft 74 kts
2026-05-05 18:34 -21.78267 -43.38539 3119 ft 75 kts 11°
2026-05-05 18:34 -21.77774 -43.38415 3294 ft 70 kts 16°
2026-05-05 18:35 -21.77292 -43.38401 3415 ft 69 kts 345°
2026-05-05 18:35 -21.76859 -43.38621 3523 ft 70 kts 328°
2026-05-05 18:35 -21.76520 -43.39002 3663 ft 69 kts 299°
2026-05-05 18:35 -21.76368 -43.39513 3752 ft 74 kts 275°
2026-05-05 18:36 -21.76403 -43.40060 3884 ft 71 kts 258°
2026-05-05 18:36 -21.76585 -43.40540 3986 ft 71 kts 222°
2026-05-05 18:36 -21.77017 -43.40749 4131 ft 70 kts 187°
2026-05-05 18:36 -21.77506 -43.40952 4222 ft 79 kts 203°
2026-05-05 18:37 -21.78045 -43.41244 4301 ft 89 kts 202°
2026-05-05 18:37 -21.78646 -43.41543 4332 ft 105 kts 205°
2026-05-05 18:37 -21.79324 -43.41917 4448 ft 109 kts 204°
2026-05-05 18:37 -21.80003 -43.42278 4557 ft 108 kts 204°
2026-05-05 18:38 -21.80650 -43.42626 4677 ft 103 kts 205°
2026-05-05 18:38 -21.81295 -43.42978 4771 ft 105 kts 205°
2026-05-05 18:38 -21.81944 -43.43329 4949 ft 104 kts 205°
2026-05-05 18:38 -21.82582 -43.43674 5078 ft 104 kts 205°
2026-05-05 18:39 -21.83239 -43.44024 5186 ft 104 kts 204°
2026-05-05 18:39 -21.83884 -43.44375 5264 ft 104 kts 204°
2026-05-05 18:39 -21.84530 -43.44730 5363 ft 104 kts 204°
2026-05-05 18:39 -21.85176 -43.45083 5453 ft 104 kts 204°
2026-05-05 18:40 -21.85832 -43.45439 5493 ft 108 kts 205°
2026-05-05 18:40 -21.86512 -43.45811 5495 ft 110 kts 205°
2026-05-05 18:40 -21.87198 -43.46184 5500 ft 112 kts 205°
2026-05-05 18:40 -21.87892 -43.46560 5498 ft 112 kts 205°
2026-05-05 18:41 -21.88571 -43.46927 5493 ft 109 kts 205°
2026-05-05 18:41 -21.89240 -43.47287 5493 ft 107 kts 205°
2026-05-05 18:41 -21.89912 -43.47654 5499 ft 110 kts 205°
2026-05-05 18:41 -21.90598 -43.48020 5493 ft 109 kts 205°
2026-05-05 18:42 -21.91261 -43.48376 5498 ft 108 kts 205°
2026-05-05 18:42 -21.91943 -43.48695 5497 ft 106 kts 194°
2026-05-05 18:42 -21.92670 -43.48890 5498 ft 109 kts 193°
2026-05-05 18:42 -21.93410 -43.49096 5492 ft 108 kts 193°
2026-05-05 18:43 -21.94140 -43.49299 5497 ft 108 kts 193°
2026-05-05 18:43 -21.94855 -43.49499 5548 ft 105 kts 193°
2026-05-05 18:43 -21.95574 -43.49702 5545 ft 106 kts 193°
2026-05-05 18:43 -21.96046 -43.49834 5558 ft 106 kts 192°
2026-05-05 18:44 -21.97020 -43.50100 5548 ft 108 kts 193°
2026-05-05 18:44 -21.97753 -43.50304 5553 ft 110 kts 193°
2026-05-05 18:44 -21.98488 -43.50507 5551 ft 107 kts 193°
2026-05-05 18:44 -21.99210 -43.50709 5548 ft 108 kts 193°
2026-05-05 18:45 -21.99934 -43.50909 5551 ft 109 kts 193°
2026-05-05 18:45 -22.00663 -43.51107 5549 ft 108 kts 193°
2026-05-05 18:45 -22.01392 -43.51307 5549 ft 108 kts 193°
2026-05-05 18:45 -22.02114 -43.51506 5548 ft 107 kts 192°
2026-05-05 18:46 -22.02830 -43.51706 5549 ft 106 kts 193°
2026-05-05 18:46 -22.03548 -43.51904 5550 ft 108 kts 193°
2026-05-05 18:46 -22.04279 -43.52107 5583 ft 109 kts 193°
2026-05-05 18:46 -22.05013 -43.52307 5678 ft 108 kts 193°
2026-05-05 18:47 -22.05741 -43.52506 5753 ft 108 kts 193°
2026-05-05 18:47 -22.06453 -43.52702 5878 ft 104 kts 193°
2026-05-05 18:47 -22.07137 -43.52889 6025 ft 100 kts 193°
2026-05-05 18:47 -22.07805 -43.53071 6126 ft 101 kts 192°
2026-05-05 18:48 -22.08485 -43.53253 6236 ft 100 kts 193°
2026-05-05 18:48 -22.09174 -43.53437 6334 ft 101 kts 193°
2026-05-05 18:48 -22.09629 -43.53559 6398 ft 100 kts 192°
2026-05-05 18:49 -22.10310 -43.53742 6514 ft 100 kts 193°
2026-05-05 18:49 -22.11001 -43.53929 6555 ft 106 kts 193°
2026-05-05 18:49 -22.11744 -43.54129 6554 ft 113 kts 193°
2026-05-05 18:49 -22.12520 -43.54338 6556 ft 116 kts 193°
2026-05-05 18:50 -22.13309 -43.54550 6553 ft 115 kts 193°
2026-05-05 18:50 -22.14057 -43.54751 6553 ft 108 kts 193°
2026-05-05 18:50 -22.14779 -43.54943 6557 ft 107 kts 193°
2026-05-05 18:50 -22.15492 -43.55133 6549 ft 105 kts 193°
2026-05-05 18:51 -22.16189 -43.55342 6559 ft 104 kts 196°
2026-05-05 18:51 -22.16893 -43.55577 6549 ft 105 kts 195°
2026-05-05 18:51 -22.17588 -43.55807 6554 ft 105 kts 196°
2026-05-05 18:51 -22.18289 -43.56038 6550 ft 105 kts 196°
2026-05-05 18:52 -22.18979 -43.56272 6551 ft 103 kts 196°
2026-05-05 18:52 -22.19667 -43.56504 6551 ft 104 kts 195°
2026-05-05 18:52 -22.20362 -43.56730 6552 ft 104 kts 196°
2026-05-05 18:52 -22.21047 -43.56961 6546 ft 101 kts 196°
2026-05-05 18:53 -22.21712 -43.57182 6549 ft 99 kts 195°
2026-05-05 18:53 -22.22360 -43.57397 6546 ft 98 kts 196°
2026-05-05 18:53 -22.23012 -43.57613 6544 ft 97 kts 196°
2026-05-05 18:53 -22.23664 -43.57829 6547 ft 99 kts 195°
2026-05-05 18:54 -22.24321 -43.58047 6549 ft 98 kts 196°
2026-05-05 18:54 -22.24981 -43.58263 6555 ft 101 kts 196°
2026-05-05 18:54 -22.25657 -43.58485 6546 ft 102 kts 196°
2026-05-05 18:54 -22.26329 -43.58707 6548 ft 100 kts 196°
2026-05-05 18:55 -22.26995 -43.58925 6548 ft 100 kts 195°
2026-05-05 18:55 -22.27662 -43.59153 6549 ft 101 kts 196°
2026-05-05 18:55 -22.28328 -43.59376 6553 ft 102 kts 196°
2026-05-05 18:55 -22.29014 -43.59607 6544 ft 105 kts 196°
2026-05-05 18:56 -22.29714 -43.59841 6542 ft 105 kts 196°
2026-05-05 18:56 -22.30415 -43.60074 6549 ft 106 kts 197°
2026-05-05 18:56 -22.31130 -43.60317 6550 ft 107 kts 196°
2026-05-05 18:56 -22.31838 -43.60552 6548 ft 106 kts 196°
2026-05-05 18:57 -22.32535 -43.60788 6543 ft 104 kts 196°
2026-05-05 18:57 -22.33223 -43.61016 6542 ft 103 kts 196°
2026-05-05 18:57 -22.33901 -43.61245 6542 ft 101 kts 196°
2026-05-05 18:57 -22.34582 -43.61468 6546 ft 104 kts 196°
2026-05-05 18:58 -22.35273 -43.61706 6550 ft 104 kts 196°
2026-05-05 18:58 -22.35961 -43.61939 6537 ft 103 kts 195°
2026-05-05 18:58 -22.36631 -43.62171 6545 ft 102 kts 196°
2026-05-05 18:58 -22.37300 -43.62438 6540 ft 103 kts 208°
2026-05-05 18:59 -22.37841 -43.62946 6541 ft 104 kts 225°
2026-05-05 18:59 -22.38333 -43.63512 6537 ft 102 kts 223°
2026-05-05 18:59 -22.38825 -43.64076 6542 ft 105 kts 224°
2026-05-05 18:59 -22.39334 -43.64649 6539 ft 106 kts 224°
2026-05-05 19:00 -22.39841 -43.65222 6542 ft 106 kts 224°
2026-05-05 19:00 -22.40350 -43.65799 6538 ft 107 kts 224°
2026-05-05 19:00 -22.40863 -43.66379 6540 ft 107 kts 224°
2026-05-05 19:00 -22.41376 -43.66964 6541 ft 107 kts 224°
2026-05-05 19:01 -22.41893 -43.67555 6539 ft 109 kts 224°
2026-05-05 19:01 -22.42412 -43.68151 6539 ft 109 kts 224°
2026-05-05 19:01 -22.42932 -43.68742 6547 ft 110 kts 224°
2026-05-05 19:01 -22.43459 -43.69347 6550 ft 111 kts 224°
2026-05-05 19:02 -22.43983 -43.69943 6540 ft 107 kts 224°
2026-05-05 19:02 -22.44484 -43.70515 6537 ft 102 kts 224°
2026-05-05 19:02 -22.44974 -43.71071 6539 ft 103 kts 224°
2026-05-05 19:02 -22.45468 -43.71637 6537 ft 104 kts 224°
2026-05-05 19:03 -22.45966 -43.72205 6536 ft 104 kts 224°
2026-05-05 19:03 -22.46463 -43.72772 6547 ft 105 kts 224°
2026-05-05 19:03 -22.46977 -43.73356 6542 ft 108 kts 224°
2026-05-05 19:03 -22.47480 -43.73927 6537 ft 105 kts 224°
2026-05-05 19:04 -22.47991 -43.74504 6537 ft 105 kts 224°
2026-05-05 19:04 -22.48493 -43.75073 6540 ft 108 kts 223°
2026-05-05 19:04 -22.49014 -43.75667 6540 ft 108 kts 224°
2026-05-05 19:04 -22.49531 -43.76254 6550 ft 108 kts 224°
2026-05-05 19:05 -22.50047 -43.76840 6538 ft 107 kts 224°
2026-05-05 19:05 -22.50554 -43.77420 6536 ft 105 kts 224°
2026-05-05 19:05 -22.51055 -43.77995 6543 ft 105 kts 224°
2026-05-05 19:05 -22.51559 -43.78576 6543 ft 106 kts 224°
2026-05-05 19:06 -22.52064 -43.79151 6541 ft 107 kts 223°
2026-05-05 19:06 -22.52580 -43.79736 6543 ft 108 kts 224°
2026-05-05 19:06 -22.53096 -43.80325 6538 ft 108 kts 224°
2026-05-05 19:06 -22.53594 -43.80925 6538 ft 108 kts 237°
2026-05-05 19:07 -22.53698 -43.81738 6542 ft 111 kts 276°
2026-05-05 19:07 -22.53602 -43.82280 6538 ft 111 kts 278°
2026-05-05 19:07 -22.53426 -43.83382 6536 ft 113 kts 277°
2026-05-05 19:07 -22.53295 -43.84210 6535 ft 110 kts 277°
2026-05-05 19:08 -22.53161 -43.85020 6539 ft 108 kts 276°
2026-05-05 19:08 -22.53031 -43.85825 6534 ft 108 kts 277°
2026-05-05 19:08 -22.52902 -43.86628 6535 ft 109 kts 277°
2026-05-05 19:08 -22.52774 -43.87451 6542 ft 112 kts 277°
2026-05-05 19:09 -22.52642 -43.88284 6535 ft 112 kts 277°
2026-05-05 19:09 -22.52513 -43.89107 6539 ft 111 kts 278°
2026-05-05 19:09 -22.52383 -43.89938 6546 ft 113 kts 277°
2026-05-05 19:09 -22.52252 -43.90774 6545 ft 115 kts 277°
2026-05-05 19:10 -22.52119 -43.91627 6543 ft 114 kts 277°
2026-05-05 19:10 -22.51986 -43.92472 6547 ft 113 kts 277°
2026-05-05 19:10 -22.51852 -43.93310 6545 ft 113 kts 276°
2026-05-05 19:10 -22.51719 -43.94150 6539 ft 113 kts 277°
2026-05-05 19:11 -22.51586 -43.94981 6541 ft 112 kts 277°
2026-05-05 19:11 -22.51452 -43.95825 6542 ft 113 kts 277°
2026-05-05 19:11 -22.51319 -43.96663 6543 ft 113 kts 277°
2026-05-05 19:11 -22.51231 -43.97493 6546 ft 110 kts 264°
2026-05-05 19:12 -22.51288 -43.98310 6544 ft 109 kts 263°
2026-05-05 19:12 -22.51342 -43.99133 6543 ft 110 kts 263°
2026-05-05 19:12 -22.51398 -43.99956 6544 ft 109 kts 263°
2026-05-05 19:12 -22.51455 -44.00779 6544 ft 110 kts 263°
2026-05-05 19:13 -22.51509 -44.01596 6542 ft 108 kts 263°
2026-05-05 19:13 -22.51564 -44.02411 6541 ft 109 kts 263°
2026-05-05 19:13 -22.51599 -44.02947 6544 ft 107 kts 263°
2026-05-05 19:13 -22.51693 -44.03747 6547 ft 106 kts 251°
2026-05-05 19:14 -22.51903 -44.04512 6547 ft 107 kts 251°
2026-05-05 19:14 -22.52100 -44.05293 6544 ft 108 kts 253°
2026-05-05 19:14 -22.52278 -44.06083 6546 ft 108 kts 253°
2026-05-05 19:14 -22.52460 -44.06868 6543 ft 107 kts 253°
2026-05-05 19:15 -22.52641 -44.07650 6546 ft 107 kts 253°
2026-05-05 19:15 -22.52822 -44.08436 6548 ft 108 kts 253°
2026-05-05 19:15 -22.53005 -44.09223 6547 ft 108 kts 253°
2026-05-05 19:15 -22.53184 -44.10011 6544 ft 108 kts 253°
2026-05-05 19:16 -22.53362 -44.10791 6545 ft 106 kts 253°
2026-05-05 19:16 -22.53539 -44.11566 6548 ft 106 kts 253°
2026-05-05 19:16 -22.53663 -44.12341 6551 ft 106 kts 261°
2026-05-05 19:16 -22.53752 -44.13148 6555 ft 107 kts 260°
2026-05-05 19:17 -22.53842 -44.13940 6553 ft 107 kts 260°
2026-05-05 19:17 -22.53932 -44.14752 6556 ft 110 kts 261°
2026-05-05 19:17 -22.54029 -44.15580 6557 ft 112 kts 260°
2026-05-05 19:17 -22.54126 -44.16423 6556 ft 113 kts 260°
2026-05-05 19:18 -22.54223 -44.17270 6553 ft 113 kts 260°
2026-05-05 19:18 -22.54319 -44.18109 6558 ft 112 kts 260°
2026-05-05 19:18 -22.54417 -44.18946 6558 ft 112 kts 260°
2026-05-05 19:18 -22.54516 -44.19781 6552 ft 111 kts 260°
2026-05-05 19:19 -22.54615 -44.20609 6556 ft 110 kts 260°
2026-05-05 19:19 -22.54712 -44.21420 6556 ft 111 kts 261°
2026-05-05 19:19 -22.54812 -44.22255 6560 ft 112 kts 259°
2026-05-05 19:19 -22.54911 -44.23092 6559 ft 113 kts 259°
2026-05-05 19:20 -22.55011 -44.23935 6561 ft 113 kts 260°
2026-05-05 19:20 -22.55108 -44.24778 6564 ft 114 kts 259°
2026-05-05 19:20 -22.55203 -44.25628 6563 ft 113 kts 260°
2026-05-05 19:20 -22.55301 -44.26473 6557 ft 114 kts 260°
2026-05-05 19:21 -22.55397 -44.27327 6561 ft 114 kts 260°
2026-05-05 19:21 -22.55493 -44.28178 6564 ft 114 kts 260°
2026-05-05 19:21 -22.55587 -44.29022 6568 ft 112 kts 260°
2026-05-05 19:21 -22.55683 -44.29859 6564 ft 111 kts 260°
2026-05-05 19:22 -22.55779 -44.30690 6564 ft 111 kts 261°
2026-05-05 19:22 -22.55874 -44.31512 6562 ft 111 kts 260°
2026-05-05 19:22 -22.55969 -44.32352 6565 ft 111 kts 260°
2026-05-05 19:22 -22.56064 -44.33169 6570 ft 111 kts 260°
2026-05-05 19:23 -22.56160 -44.33997 6570 ft 111 kts 260°
2026-05-05 19:23 -22.56256 -44.34832 6570 ft 112 kts 260°
2026-05-05 19:23 -22.56347 -44.35666 6568 ft 111 kts 260°
2026-05-05 19:23 -22.56436 -44.36493 6568 ft 110 kts 260°
2026-05-05 19:24 -22.56526 -44.37309 6569 ft 108 kts 260°
2026-05-05 19:24 -22.56617 -44.38119 6575 ft 109 kts 260°
2026-05-05 19:24 -22.56708 -44.38938 6576 ft 110 kts 261°
2026-05-05 19:24 -22.56800 -44.39763 6570 ft 110 kts 260°
2026-05-05 19:25 -22.56889 -44.40572 6573 ft 108 kts 260°
2026-05-05 19:25 -22.56979 -44.41379 6575 ft 108 kts 260°
2026-05-05 19:25 -22.57071 -44.42194 6571 ft 109 kts 260°
2026-05-05 19:25 -22.57159 -44.43013 6570 ft 110 kts 259°
2026-05-05 19:26 -22.57242 -44.43822 6576 ft 109 kts 261°
2026-05-05 19:26 -22.57329 -44.44635 6576 ft 108 kts 261°
2026-05-05 19:26 -22.57411 -44.45444 6576 ft 109 kts 259°
2026-05-05 19:26 -22.57500 -44.46259 6580 ft 110 kts 260°
2026-05-05 19:27 -22.57587 -44.47082 6580 ft 109 kts 261°
2026-05-05 19:27 -22.57673 -44.47895 6580 ft 109 kts 261°
2026-05-05 19:27 -22.57761 -44.48713 6580 ft 110 kts 259°
2026-05-05 19:27 -22.57854 -44.49536 6581 ft 109 kts 260°
2026-05-05 19:28 -22.57944 -44.50353 6579 ft 109 kts 260°
2026-05-05 19:28 -22.58035 -44.51164 6581 ft 108 kts 261°
2026-05-05 19:28 -22.58127 -44.51973 6580 ft 109 kts 260°
2026-05-05 19:28 -22.58220 -44.52781 6582 ft 108 kts 260°
2026-05-05 19:29 -22.58311 -44.53594 6582 ft 109 kts 260°
2026-05-05 19:29 -22.58403 -44.54406 6586 ft 110 kts 261°
2026-05-05 19:29 -22.58495 -44.55235 6587 ft 111 kts 261°
2026-05-05 19:29 -22.58589 -44.56067 6584 ft 111 kts 260°
2026-05-05 19:30 -22.58681 -44.56898 6588 ft 111 kts 260°
2026-05-05 19:30 -22.58776 -44.57730 6588 ft 111 kts 259°
2026-05-05 19:30 -22.58868 -44.58560 6586 ft 111 kts 260°
2026-05-05 19:30 -22.58960 -44.59379 6585 ft 109 kts 260°
2026-05-05 19:31 -22.59050 -44.60182 6583 ft 108 kts 261°
2026-05-05 19:31 -22.59145 -44.60992 6582 ft 109 kts 260°
2026-05-05 19:31 -22.59240 -44.61807 6587 ft 109 kts 261°
2026-05-05 19:31 -22.59337 -44.62625 6590 ft 110 kts 261°
2026-05-05 19:32 -22.59438 -44.63455 6591 ft 113 kts 260°
2026-05-05 19:32 -22.59541 -44.64306 6588 ft 115 kts 260°
2026-05-05 19:32 -22.59641 -44.65144 6595 ft 113 kts 261°
2026-05-05 19:32 -22.59741 -44.66006 6593 ft 116 kts 261°
2026-05-05 19:33 -22.59842 -44.66873 6589 ft 116 kts 261°
2026-05-05 19:33 -22.59944 -44.67733 6593 ft 115 kts 260°
2026-05-05 19:33 -22.60049 -44.68585 6589 ft 114 kts 260°
2026-05-05 19:33 -22.60152 -44.69439 6587 ft 114 kts 260°
2026-05-05 19:34 -22.60256 -44.70290 6588 ft 114 kts 260°
2026-05-05 19:34 -22.60362 -44.71145 6588 ft 115 kts 261°
2026-05-05 19:34 -22.60464 -44.72006 6587 ft 115 kts 260°
2026-05-05 19:35 -22.60682 -44.73730 6596 ft 116 kts 261°
2026-05-05 19:35 -22.60789 -44.74602 6593 ft 116 kts 260°
2026-05-05 19:35 -22.60895 -44.75476 6595 ft 118 kts 260°
2026-05-05 19:35 -22.61001 -44.76351 6589 ft 117 kts 261°
2026-05-05 19:36 -22.61106 -44.77208 6587 ft 114 kts 260°
2026-05-05 19:36 -22.61211 -44.78059 6590 ft 114 kts 260°
2026-05-05 19:36 -22.61320 -44.78909 6585 ft 114 kts 259°
2026-05-05 19:36 -22.61424 -44.79751 6590 ft 113 kts 260°
2026-05-05 19:37 -22.61527 -44.80592 6590 ft 113 kts 261°
2026-05-05 19:37 -22.61632 -44.81431 6589 ft 112 kts 261°
2026-05-05 19:37 -22.61738 -44.82264 6588 ft 112 kts 261°
2026-05-05 19:37 -22.61842 -44.83092 6593 ft 113 kts 260°
2026-05-05 19:38 -22.61949 -44.83939 6596 ft 114 kts 260°
2026-05-05 19:38 -22.62058 -44.84798 6593 ft 116 kts 261°
2026-05-05 19:38 -22.62163 -44.85659 6596 ft 116 kts 260°
2026-05-05 19:38 -22.62269 -44.86524 6593 ft 116 kts 261°
2026-05-05 19:39 -22.62379 -44.87396 6596 ft 117 kts 259°
2026-05-05 19:39 -22.62487 -44.88267 6591 ft 117 kts 261°
2026-05-05 19:39 -22.62591 -44.89133 6589 ft 114 kts 261°
2026-05-05 19:39 -22.62814 -44.89921 6588 ft 108 kts 237°
2026-05-05 19:40 -22.63235 -44.90583 6582 ft 107 kts 231°
2026-05-05 19:40 -22.63637 -44.91258 6584 ft 107 kts 235°
2026-05-05 19:40 -22.64043 -44.91937 6593 ft 108 kts 234°
2026-05-05 19:40 -22.64453 -44.92620 6588 ft 108 kts 233°
2026-05-05 19:41 -22.64862 -44.93313 6595 ft 110 kts 235°
2026-05-05 19:41 -22.65224 -44.94041 6584 ft 112 kts 243°
2026-05-05 19:41 -22.65553 -44.94805 6591 ft 112 kts 242°
2026-05-05 19:41 -22.65883 -44.95569 6593 ft 111 kts 242°
2026-05-05 19:42 -22.66210 -44.96331 6588 ft 111 kts 242°
2026-05-05 19:42 -22.66543 -44.97094 6592 ft 112 kts 242°
2026-05-05 19:42 -22.66877 -44.97862 6595 ft 113 kts 242°
2026-05-05 19:42 -22.67232 -44.98676 6395 ft 125 kts 243°
2026-05-05 19:43 -22.67597 -44.99515 6151 ft 124 kts 243°
2026-05-05 19:43 -22.67967 -45.00361 5908 ft 124 kts 243°
2026-05-05 19:43 -22.68340 -45.01207 5666 ft 125 kts 240°
2026-05-05 19:43 -22.68805 -45.01951 5601 ft 115 kts 232°
2026-05-05 19:44 -22.69260 -45.02654 5599 ft 114 kts 232°
2026-05-05 19:44 -22.69715 -45.03353 5603 ft 113 kts 233°
2026-05-05 19:44 -22.70168 -45.04048 5601 ft 113 kts 232°
2026-05-05 19:44 -22.70621 -45.04739 5597 ft 112 kts 232°
2026-05-05 19:45 -22.71066 -45.05421 5600 ft 110 kts 232°
2026-05-05 19:45 -22.71514 -45.06105 5521 ft 115 kts 232°
2026-05-05 19:45 -22.71991 -45.06833 5398 ft 121 kts 232°
2026-05-05 19:45 -22.72323 -45.07338 5324 ft 122 kts 232°
2026-05-05 19:46 -22.72344 -45.07371 5319 ft 122 kts 232°
2026-05-05 19:46 -22.72843 -45.08128 5192 ft 124 kts 232°
2026-05-05 19:46 -22.73347 -45.08894 5102 ft 123 kts 232°
2026-05-05 19:46 -22.73825 -45.09619 5102 ft 117 kts 233°
2026-05-05 19:47 -22.74292 -45.10327 5099 ft 113 kts 232°
2026-05-05 19:47 -22.74744 -45.11015 5100 ft 111 kts 232°
2026-05-05 19:47 -22.75189 -45.11693 5097 ft 109 kts 232°
2026-05-05 19:47 -22.75627 -45.12362 5097 ft 109 kts 232°
2026-05-05 19:48 -22.76066 -45.13028 5102 ft 109 kts 232°
2026-05-05 19:48 -22.76499 -45.13692 5098 ft 107 kts 232°
2026-05-05 19:48 -22.76927 -45.14347 5099 ft 106 kts 232°
2026-05-05 19:48 -22.77358 -45.15004 5093 ft 107 kts 232°
2026-05-05 19:49 -22.77786 -45.15657 5097 ft 106 kts 232°
2026-05-05 19:49 -22.78070 -45.16093 5095 ft 107 kts 232°
2026-05-05 19:49 -22.78642 -45.16973 5096 ft 107 kts 232°
2026-05-05 19:49 -22.79067 -45.17633 5094 ft 107 kts 232°
2026-05-05 19:50 -22.79495 -45.18292 5096 ft 107 kts 232°
2026-05-05 19:50 -22.79919 -45.18948 5098 ft 106 kts 232°
2026-05-05 19:50 -22.80339 -45.19599 5098 ft 107 kts 232°
2026-05-05 19:50 -22.80765 -45.20262 5093 ft 107 kts 232°
2026-05-05 19:51 -22.81194 -45.20924 5091 ft 106 kts 232°
2026-05-05 19:51 -22.81618 -45.21581 5094 ft 106 kts 232°
2026-05-05 19:51 -22.82048 -45.22239 5096 ft 108 kts 232°
2026-05-05 19:51 -22.82481 -45.22906 5099 ft 108 kts 232°
2026-05-05 19:52 -22.82917 -45.23577 5103 ft 109 kts 232°
2026-05-05 19:52 -22.83353 -45.24250 5094 ft 109 kts 232°
2026-05-05 19:52 -22.83787 -45.24922 5099 ft 109 kts 232°
2026-05-05 19:52 -22.84224 -45.25597 5098 ft 109 kts 232°
2026-05-05 19:53 -22.84661 -45.26272 5098 ft 109 kts 232°
2026-05-05 19:53 -22.85092 -45.26938 5096 ft 109 kts 232°
2026-05-05 19:53 -22.85524 -45.27608 5099 ft 108 kts 233°
2026-05-05 19:53 -22.85956 -45.28277 5094 ft 107 kts 233°
2026-05-05 19:54 -22.86383 -45.28938 5092 ft 106 kts 232°
2026-05-05 19:54 -22.86811 -45.29595 5091 ft 106 kts 232°
2026-05-05 19:54 -22.87239 -45.30255 5096 ft 107 kts 232°
2026-05-05 19:54 -22.87664 -45.30912 5092 ft 107 kts 232°
2026-05-05 19:55 -22.88090 -45.31567 5091 ft 108 kts 232°
2026-05-05 19:55 -22.88526 -45.32241 5092 ft 109 kts 232°
2026-05-05 19:55 -22.88969 -45.32920 5090 ft 110 kts 232°
2026-05-05 19:55 -22.89407 -45.33601 5091 ft 110 kts 233°
2026-05-05 19:56 -22.89845 -45.34278 5087 ft 109 kts 232°
2026-05-05 19:56 -22.90278 -45.34954 5090 ft 110 kts 233°
2026-05-05 19:56 -22.90720 -45.35635 5086 ft 110 kts 232°
2026-05-05 19:56 -22.91161 -45.36318 5011 ft 116 kts 232°
2026-05-05 19:57 -22.91640 -45.37053 4872 ft 122 kts 232°
2026-05-05 19:57 -22.91973 -45.37566 4792 ft 124 kts 233°
2026-05-05 19:57 -22.92639 -45.38585 4622 ft 126 kts 233°
2026-05-05 19:57 -22.93139 -45.39356 4578 ft 122 kts 233°
2026-05-05 19:58 -22.93616 -45.40094 4578 ft 117 kts 233°
2026-05-05 19:58 -22.94073 -45.40811 4575 ft 114 kts 234°
2026-05-05 19:58 -22.94449 -45.41566 4573 ft 113 kts 240°
2026-05-05 19:58 -22.94814 -45.42319 4567 ft 111 kts 239°
2026-05-05 19:59 -22.95172 -45.43053 4565 ft 109 kts 239°
2026-05-05 19:59 -22.95524 -45.43773 4568 ft 109 kts 239°
2026-05-05 19:59 -22.95876 -45.44494 4563 ft 108 kts 239°
2026-05-05 19:59 -22.96222 -45.45203 4570 ft 106 kts 239°
2026-05-05 20:00 -22.96564 -45.45909 4565 ft 105 kts 239°
2026-05-05 20:00 -22.96908 -45.46620 4567 ft 107 kts 239°
2026-05-05 20:00 -22.97256 -45.47338 4568 ft 108 kts 239°
2026-05-05 20:00 -22.97602 -45.48062 4568 ft 108 kts 239°
2026-05-05 20:01 -22.97945 -45.48791 4575 ft 109 kts 240°
2026-05-05 20:01 -22.98296 -45.49520 4577 ft 108 kts 239°
2026-05-05 20:01 -22.98646 -45.50251 4577 ft 109 kts 240°
2026-05-05 20:01 -22.98996 -45.50978 4578 ft 109 kts 239°
2026-05-05 20:02 -22.99338 -45.51699 4574 ft 107 kts 239°
2026-05-05 20:02 -22.99675 -45.52402 4568 ft 105 kts 239°
2026-05-05 20:02 -23.00013 -45.53105 4568 ft 104 kts 239°
2026-05-05 20:02 -23.00348 -45.53798 4568 ft 104 kts 239°
2026-05-05 20:03 -23.00678 -45.54492 4574 ft 104 kts 239°
2026-05-05 20:03 -23.01009 -45.55190 4572 ft 104 kts 239°
2026-05-05 20:03 -23.01236 -45.55662 4576 ft 105 kts 239°
2026-05-05 20:03 -23.01573 -45.56368 4575 ft 106 kts 238°
2026-05-05 20:04 -23.01916 -45.57088 4574 ft 107 kts 239°
2026-05-05 20:04 -23.02369 -45.58044 4573 ft 107 kts 239°
2026-05-05 20:04 -23.02599 -45.58528 4576 ft 107 kts 240°
2026-05-05 20:04 -23.02932 -45.59235 4574 ft 106 kts 240°
2026-05-05 20:05 -23.03272 -45.59946 4572 ft 106 kts 239°
2026-05-05 20:05 -23.03607 -45.60654 4574 ft 105 kts 239°
2026-05-05 20:05 -23.03943 -45.61364 4571 ft 106 kts 239°
2026-05-05 20:05 -23.04286 -45.62087 4578 ft 110 kts 240°
2026-05-05 20:06 -23.04643 -45.62830 4582 ft 113 kts 239°
2026-05-05 20:06 -23.05009 -45.63592 4579 ft 115 kts 239°
2026-05-05 20:06 -23.05373 -45.64362 4577 ft 115 kts 239°
2026-05-05 20:06 -23.05735 -45.65136 4583 ft 116 kts 240°
2026-05-05 20:07 -23.06102 -45.65914 4576 ft 115 kts 239°
2026-05-05 20:07 -23.06463 -45.66685 4579 ft 113 kts 239°
2026-05-05 20:07 -23.06817 -45.67446 4574 ft 112 kts 240°
2026-05-05 20:07 -23.07175 -45.68200 4579 ft 113 kts 240°
2026-05-05 20:08 -23.07521 -45.68966 4575 ft 114 kts 251°
2026-05-05 20:08 -23.07498 -45.69831 4574 ft 115 kts 274°
2026-05-05 20:08 -23.07421 -45.70693 4579 ft 115 kts 274°
2026-05-05 20:08 -23.07347 -45.71569 4582 ft 118 kts 274°
2026-05-05 20:09 -23.07272 -45.72472 4532 ft 124 kts 273°
2026-05-05 20:09 -23.07212 -45.73439 4427 ft 131 kts 267°
2026-05-05 20:09 -23.07309 -45.74436 4306 ft 134 kts 261°
2026-05-05 20:09 -23.07411 -45.75444 4185 ft 134 kts 261°
2026-05-05 20:10 -23.07509 -45.76459 4093 ft 134 kts 262°
2026-05-05 20:10 -23.07608 -45.77441 4096 ft 128 kts 262°
2026-05-05 20:10 -23.07704 -45.78381 4091 ft 123 kts 262°
2026-05-05 20:10 -23.07793 -45.79279 4091 ft 119 kts 262°
2026-05-05 20:11 -23.07883 -45.80175 4088 ft 119 kts 262°
2026-05-05 20:11 -23.07973 -45.81064 4087 ft 118 kts 262°
2026-05-05 20:11 -23.08067 -45.81944 4087 ft 117 kts 261°
2026-05-05 20:11 -23.08158 -45.82825 4088 ft 117 kts 262°
2026-05-05 20:12 -23.08246 -45.83703 4090 ft 117 kts 262°
2026-05-05 20:12 -23.08334 -45.84589 4095 ft 119 kts 262°
2026-05-05 20:12 -23.08425 -45.85477 4095 ft 120 kts 262°
2026-05-05 20:12 -23.08518 -45.86383 4092 ft 121 kts 262°
2026-05-05 20:13 -23.08612 -45.87294 4092 ft 121 kts 261°
2026-05-05 20:13 -23.08704 -45.88202 4087 ft 120 kts 262°
2026-05-05 20:13 -23.08801 -45.89097 4093 ft 119 kts 262°
2026-05-05 20:13 -23.08894 -45.89981 4090 ft 118 kts 262°
2026-05-05 20:14 -23.08989 -45.90856 4090 ft 115 kts 262°
2026-05-05 20:14 -23.09080 -45.91727 4095 ft 117 kts 262°
2026-05-05 20:14 -23.09170 -45.92610 4096 ft 118 kts 262°
2026-05-05 20:14 -23.09265 -45.93490 4095 ft 119 kts 262°
2026-05-05 20:15 -23.09366 -45.94397 4095 ft 122 kts 262°
2026-05-05 20:15 -23.09462 -45.95309 4102 ft 122 kts 262°
2026-05-05 20:15 -23.09557 -45.96234 4095 ft 122 kts 262°
2026-05-05 20:15 -23.09653 -45.97138 4095 ft 119 kts 262°
2026-05-05 20:16 -23.09746 -45.98025 4089 ft 117 kts 262°
2026-05-05 20:16 -23.09833 -45.98886 4093 ft 112 kts 262°
2026-05-05 20:16 -23.09920 -45.99731 4092 ft 113 kts 262°
2026-05-05 20:16 -23.10004 -46.00579 4091 ft 114 kts 261°
2026-05-05 20:17 -23.10096 -46.01433 4090 ft 113 kts 262°
2026-05-05 20:17 -23.10185 -46.02277 4094 ft 113 kts 262°
2026-05-05 20:17 -23.10280 -46.03132 4087 ft 115 kts 262°
2026-05-05 20:17 -23.10371 -46.03994 4094 ft 115 kts 262°
2026-05-05 20:18 -23.10464 -46.04871 4089 ft 117 kts 262°
2026-05-05 20:18 -23.10556 -46.05753 4092 ft 117 kts 261°
2026-05-05 20:18 -23.10639 -46.06639 4092 ft 118 kts 261°
2026-05-05 20:18 -23.10722 -46.07524 4094 ft 118 kts 262°
2026-05-05 20:19 -23.10810 -46.08414 4087 ft 117 kts 262°
2026-05-05 20:19 -23.10894 -46.09279 4083 ft 117 kts 262°
2026-05-05 20:19 -23.10980 -46.10149 4192 ft 111 kts 261°
2026-05-05 20:19 -23.11052 -46.10956 4329 ft 106 kts 262°
2026-05-05 20:20 -23.11130 -46.11756 4418 ft 107 kts 262°
2026-05-05 20:20 -23.11216 -46.12559 4545 ft 107 kts 261°
2026-05-05 20:20 -23.11293 -46.13350 4707 ft 103 kts 261°
2026-05-05 20:20 -23.11368 -46.14129 4845 ft 104 kts 262°
2026-05-05 20:21 -23.11438 -46.14914 5018 ft 104 kts 262°
2026-05-05 20:21 -23.11515 -46.15721 5082 ft 113 kts 262°
2026-05-05 20:21 -23.11596 -46.16573 5082 ft 114 kts 262°
2026-05-05 20:21 -23.11677 -46.17441 5079 ft 115 kts 264°
2026-05-05 20:22 -23.11772 -46.18306 5084 ft 116 kts 262°
2026-05-05 20:22 -23.11855 -46.19192 5088 ft 119 kts 262°
2026-05-05 20:22 -23.11913 -46.20086 5080 ft 118 kts 268°
2026-05-05 20:22 -23.11908 -46.20979 5086 ft 119 kts 268°
2026-05-05 20:23 -23.11904 -46.21882 5081 ft 119 kts 268°
2026-05-05 20:23 -23.11906 -46.22772 5079 ft 118 kts 267°
2026-05-05 20:23 -23.11900 -46.23656 5078 ft 118 kts 268°
2026-05-05 20:23 -23.11892 -46.24535 5076 ft 115 kts 268°
2026-05-05 20:24 -23.11891 -46.25388 5079 ft 110 kts 268°
2026-05-05 20:24 -23.11882 -46.26235 5083 ft 114 kts 268°
2026-05-05 20:24 -23.11881 -46.27092 5077 ft 108 kts 267°
2026-05-05 20:24 -23.11857 -46.27855 5084 ft 98 kts 268°
2026-05-05 20:25 -23.11842 -46.28605 5091 ft 103 kts 268°
2026-05-05 20:25 -23.11838 -46.29411 5087 ft 109 kts 267°
2026-05-05 20:25 -23.11823 -46.30238 5093 ft 111 kts 268°
2026-05-05 20:25 -23.11808 -46.31098 5087 ft 117 kts 268°
2026-05-05 20:26 -23.11800 -46.31971 5089 ft 115 kts 268°
2026-05-05 20:26 -23.11792 -46.32837 5090 ft 115 kts 268°
2026-05-05 20:26 -23.11790 -46.33720 5087 ft 117 kts 268°
2026-05-05 20:26 -23.11792 -46.34588 5088 ft 114 kts 268°
2026-05-05 20:27 -23.11798 -46.35390 5090 ft 115 kts 268°
2026-05-05 20:27 -23.11788 -46.36101 5091 ft 115 kts 269°
2026-05-05 20:27 -23.11790 -46.36976 5093 ft 117 kts 268°
2026-05-05 20:27 -23.11793 -46.37869 5100 ft 120 kts 269°
2026-05-05 20:28 -23.11801 -46.38798 5086 ft 124 kts 267°
2026-05-05 20:28 -23.11807 -46.39725 5085 ft 121 kts 267°
2026-05-05 20:28 -23.11813 -46.40636 5092 ft 124 kts 268°
2026-05-05 20:28 -23.11825 -46.41571 5092 ft 123 kts 268°
2026-05-05 20:29 -23.11819 -46.42502 5081 ft 123 kts 267°
2026-05-05 20:29 -23.11828 -46.43427 5087 ft 123 kts 268°
2026-05-05 20:29 -23.11822 -46.44347 5089 ft 122 kts 268°
2026-05-05 20:29 -23.11821 -46.45277 5088 ft 123 kts 268°
2026-05-05 20:30 -23.11816 -46.46201 5089 ft 121 kts 268°
2026-05-05 20:30 -23.11810 -46.47122 5083 ft 121 kts 268°
2026-05-05 20:30 -23.11801 -46.48032 5080 ft 120 kts 268°
2026-05-05 20:30 -23.11796 -46.48919 5080 ft 118 kts 268°
2026-05-05 20:31 -23.11790 -46.49815 5083 ft 118 kts 268°
2026-05-05 20:31 -23.11788 -46.50710 5080 ft 119 kts 268°
2026-05-05 20:31 -23.11833 -46.51578 5079 ft 115 kts 259°
2026-05-05 20:31 -23.11938 -46.52440 5081 ft 116 kts 260°
2026-05-05 20:32 -23.12037 -46.53313 5077 ft 116 kts 260°
2026-05-05 20:32 -23.12137 -46.54185 5081 ft 116 kts 260°
2026-05-05 20:32 -23.12237 -46.55055 5082 ft 116 kts 260°
2026-05-05 20:32 -23.12339 -46.55934 5081 ft 117 kts 260°
2026-05-05 20:33 -23.12439 -46.56813 5080 ft 117 kts 260°
2026-05-05 20:33 -23.12539 -46.57687 5079 ft 116 kts 260°
2026-05-05 20:33 -23.12640 -46.58557 5079 ft 116 kts 260°
2026-05-05 20:33 -23.12746 -46.59426 5075 ft 116 kts 260°
2026-05-05 20:34 -23.12990 -46.60229 5074 ft 111 kts 227°
2026-05-05 20:34 -23.13503 -46.60867 5044 ft 116 kts 226°
2026-05-05 20:34 -23.14036 -46.61543 4925 ft 118 kts 226°
2026-05-05 20:34 -23.14581 -46.62236 4804 ft 122 kts 226°
2026-05-05 20:35 -23.15132 -46.62936 4681 ft 122 kts 226°
2026-05-05 20:35 -23.15670 -46.63621 4589 ft 118 kts 226°
2026-05-05 20:35 -23.16184 -46.64272 4586 ft 110 kts 226°
2026-05-05 20:35 -23.16678 -46.64901 4585 ft 109 kts 226°
2026-05-05 20:36 -23.17168 -46.65529 4586 ft 110 kts 226°
2026-05-05 20:36 -23.17666 -46.66158 4585 ft 109 kts 226°
2026-05-05 20:36 -23.18160 -46.66788 4588 ft 110 kts 226°
2026-05-05 20:36 -23.18663 -46.67435 4588 ft 109 kts 226°
2026-05-05 20:37 -23.19146 -46.68062 4586 ft 111 kts 226°
2026-05-05 20:37 -23.19472 -46.68488 4586 ft 110 kts 226°
2026-05-05 20:37 -23.20124 -46.69345 4583 ft 109 kts 226°
2026-05-05 20:37 -23.20601 -46.69965 4586 ft 109 kts 226°
2026-05-05 20:38 -23.21092 -46.70608 4587 ft 110 kts 226°
2026-05-05 20:38 -23.21585 -46.71252 4590 ft 112 kts 226°
2026-05-05 20:38 -23.22091 -46.71896 4589 ft 112 kts 225°
2026-05-05 20:38 -23.22589 -46.72550 4590 ft 113 kts 227°
2026-05-05 20:39 -23.23096 -46.73197 4587 ft 112 kts 226°
2026-05-05 20:39 -23.23595 -46.73844 4592 ft 114 kts 226°
2026-05-05 20:39 -23.24106 -46.74503 4590 ft 113 kts 226°
2026-05-05 20:39 -23.24600 -46.75156 4593 ft 112 kts 226°
2026-05-05 20:40 -23.25184 -46.75661 4590 ft 106 kts 188°
2026-05-05 20:40 -23.25930 -46.75719 4522 ft 111 kts 181°
2026-05-05 20:40 -23.26718 -46.75779 4426 ft 115 kts 181°
2026-05-05 20:40 -23.27532 -46.75828 4331 ft 119 kts 181°
2026-05-05 20:41 -23.28345 -46.75887 4295 ft 115 kts 181°
2026-05-05 20:41 -23.29137 -46.75943 4305 ft 114 kts 181°
2026-05-05 20:41 -23.29925 -46.75995 4302 ft 113 kts 181°
2026-05-05 20:41 -23.30691 -46.76060 4293 ft 108 kts 181°
2026-05-05 20:42 -23.31433 -46.76120 4310 ft 107 kts 182°
2026-05-05 20:42 -23.32181 -46.76166 4308 ft 107 kts 181°
2026-05-05 20:42 -23.32919 -46.76217 4298 ft 105 kts 180°
2026-05-05 20:42 -23.33645 -46.76278 4306 ft 104 kts 181°
2026-05-05 20:43 -23.34353 -46.76342 4307 ft 102 kts 180°
2026-05-05 20:43 -23.35063 -46.76405 4300 ft 101 kts 182°
2026-05-05 20:43 -23.35766 -46.76455 4311 ft 103 kts 181°
2026-05-05 20:43 -23.36475 -46.76514 4303 ft 102 kts 181°
2026-05-05 20:44 -23.37173 -46.76457 4302 ft 100 kts 167°
2026-05-05 20:44 -23.37857 -46.76329 4299 ft 99 kts 168°
2026-05-05 20:44 -23.38535 -46.76197 4308 ft 99 kts 168°
2026-05-05 20:44 -23.39209 -46.76074 4313 ft 97 kts 168°
2026-05-05 20:45 -23.40510 -46.75652 4320 ft 98 kts 159°
2026-05-05 20:45 -23.41171 -46.75401 4250 ft 105 kts 159°
2026-05-05 20:45 -23.41882 -46.75135 4180 ft 110 kts 159°
2026-05-05 20:46 -23.42607 -46.74867 4124 ft 108 kts 159°
2026-05-05 20:46 -23.43305 -46.74607 4122 ft 103 kts 160°
2026-05-05 20:46 -23.43959 -46.74358 4123 ft 99 kts 159°
2026-05-05 20:46 -23.44600 -46.74115 4123 ft 96 kts 159°
2026-05-05 20:47 -23.45234 -46.73878 4128 ft 97 kts 159°
2026-05-05 20:47 -23.45877 -46.73644 4117 ft 97 kts 159°
2026-05-05 20:47 -23.46530 -46.73406 4023 ft 101 kts 159°
2026-05-05 20:47 -23.47191 -46.73146 3929 ft 101 kts 159°
2026-05-05 20:48 -23.47858 -46.72882 3834 ft 102 kts 159°
2026-05-05 20:48 -23.48517 -46.72611 3736 ft 99 kts 150°
2026-05-05 20:48 -23.48987 -46.72131 3732 ft 90 kts 135°
2026-05-05 20:48 -23.49342 -46.71614 3758 ft 82 kts 115°
2026-05-05 20:49 -23.49527 -46.71007 3706 ft 89 kts 111°
2026-05-05 20:49 -23.49655 -46.70571 3635 ft 94 kts 110°
2026-05-05 20:49 -23.49908 -46.69653 3509 ft 96 kts 106°
2026-05-05 20:49 -23.49988 -46.69171 3450 ft 100 kts 104°
2026-05-05 20:50 -23.50117 -46.68428 3288 ft 102 kts 107°
2026-05-05 20:50 -23.50263 -46.67687 3049 ft 96 kts 102°
2026-05-05 20:50 -23.50392 -46.67027 2928 ft 85 kts 100°
2026-05-05 20:50 -23.50492 -46.66424 2835 ft 78 kts 97°
2026-05-05 20:51 -23.50584 -46.65851 2747 ft 75 kts 95°
2026-05-05 20:51 -23.50671 -46.65302 2653 ft 73 kts 94°
2026-05-05 20:51 -23.50753 -46.64761 2524 ft 75 kts 92°
2026-05-05 20:51 -23.50841 -46.64189 2402 ft 76 kts 98°
2026-05-05 20:52 -23.50910 -46.63676 2376 ft 54 kts 92°
2026-05-05 20:52 -23.50978 -46.63410 2375 ft 27 kts 101°
2026-05-05 20:52 -23.51000 -46.63251 2376 ft 16 kts 101°
2026-05-05 20:52 -23.51018 -46.63144 2375 ft 15 kts 98°
2026-05-05 20:53 -23.51035 -46.63042 2375 ft 10 kts 116°
2026-05-05 20:53 -23.51080 -46.63017 2375 ft 7 kts 195°
2026-05-05 20:53 -23.51091 -46.63064 2375 ft 8 kts 282°
2026-05-05 20:53 -23.51080 -46.63124 2375 ft 8 kts 281°
2026-05-05 20:54 -23.51069 -46.63188 2375 ft 9 kts 281°
2026-05-05 20:54 -23.51057 -46.63257 2375 ft 10 kts 281°
2026-05-05 20:54 -23.51043 -46.63336 2375 ft 11 kts 281°
2026-05-05 20:54 -23.51031 -46.63412 2375 ft 8 kts 281°
2026-05-05 20:55 -23.51043 -46.63451 2375 ft 6 kts 179°
2026-05-05 20:55 -23.51095 -46.63442 2375 ft 8 kts 167°
2026-05-05 20:55 -23.51148 -46.63431 2375 ft 6 kts 173°
2026-05-05 20:55 -23.51170 -46.63409 2375 ft 7 kts 92°
2026-05-05 20:56 -23.51168 -46.63367 2375 ft 2 kts 58°
2026-05-05 20:56 -23.51158 -46.63356 2375 ft 1 kts 56°
2026-05-05 20:56 -23.51163 -46.63350 2375 ft 0 kts 183°
2026-05-05 20:56 -23.51181 -46.63343 2375 ft 4 kts 146°
2026-05-05 20:57 -23.51198 -46.63331 2375 ft 0 kts 171°
2026-05-05 20:57 -23.51201 -46.63331 2375 ft 0 kts 181°
2026-05-05 20:57 -23.51202 -46.63331 2375 ft 0 kts 185°